INMARSAT 5-F4 (42698 NORAD) Tracking and Keplerian Element Data

This shows tracking and keplerian element data for the satellite.

Feedback or suggestion? Click here.




ElementValue
Catalog42698
NameINMARSAT 5-F4
Epoch Orbit1183
Epoch Day222.88640282
Epoch Year2020
RAAN106.2128
Inclination0.0166
Eccentricity7.69E-05
Argument of Perigee143.9546
Mean Anonmoly84.2495
Mean Motion1.00271809
Decay Rate7.3E-07
L11 42698U 17025A 20222.88640282 .00000073 00000-0 00000-0 0 9990
L22 42698 0.0166 106.2128 0000769 143.9546 84.2495 1.00271809 11831

Live tracking and technical data element details for INMARSAT 5-F4 (NORAD 42698). INMARSAT 5-F4 can be tracked NOW for your location showing map with azimuth and elevation plus other details from your city location.

Track the satellite on the map from your city or location and see movement details for azimuth, elevation, latitude, longitude, range, height, and movement on the map or in text.







IsCatalogInMostPopularTable: catalog: 42698, numindb: 508
Update: records affected: 1



GetName: 42698 INMARSAT 5-F4

Hit Count: updated at: Mon, 10 Aug 2020 21:58:10 GMT